Wind_Speed
14 14 14 13 13 13 11 10 9 8 7 7 6 5 4 4 4 4 4 5 5 5 5 5 5 5 5 5 4 4 3 3 2 1 1 2 3 4 4 4 4 5 5
15 15 15 14 14 13 12 11 10 9 7 7 7 6 5 4 3 3 4 4 4 4 4 4 5 4 5 4 4 4 4 3 2 1 0 1 2 3 3 3 3 4 4
15 15 15 15 15 14 13 12 10 10 8 7 7 6 5 4 3 3 3 3 3 4 4 4 4 4 4 4 4 4 4 4 3 2 1 1 2 2 3 3 3 3 3
16 16 16 16 16 15 14 13 11 10 9 8 7 6 6 5 4 3 3 3 3 3 3 3 3 4 4 4 4 4 4 3 3 2 2 1 1 1 2 2 3 3 3
16 16 16 17 17 15 15 13 13 11 10 8 7 7 6 5 5 3 3 2 2 2 3 3 3 3 4 4 4 4 3 3 2 2 2 2 1 0 1 2 2 3 3
17 17 17 17 17 16 15 14 13 11 10 9 8 7 7 6 5 4 3 3 2 2 2 2 2 3 3 4 3 3 3 3 3 2 2 1 1 0 0 1 2 2 3
17 16 17 17 17 16 15 15 13 12 11 10 9 8 7 7 6 5 4 4 3 2 2 3 3 3 3 3 3 3 3 3 2 2 2 2 1 1 1 2 2 2 3
16 16 17 18 17 17 16 16 14 13 11 11 10 9 7 7 7 6 5 4 4 3 3 3 3 3 3 4 4 3 3 3 3 3 3 2 2 2 2 3 3 3 4
16 16 16 17 17 17 17 17 16 14 13 12 11 9 8 8 7 7 6 5 4 4 4 4 4 4 4 4 4 4 4 4 3 2 3 3 2 2 3 3 4 4 5
15 15 16 18 18 18 18 17 16 15 14 13 11 10 9 8 8 8 7 5 5 4 5 5 5 5 5 5 5 4 4 3 3 3 3 3 3 4 4 5 5 6 6
15 16 17 17 18 18 18 18 16 15 14 13 12 11 11 9 8 8 7 6 6 5 6 6 6 6 6 6 5 5 4 4 3 3 4 4 4 4 5 6 6 7 7
15 16 17 18 18 18 18 17 16 16 15 14 13 13 11 10 9 9 8 7 7 7 7 7 7 7 7 6 6 5 5 5 5 5 5 5 5 6 6 7 8 8 8
15 16 17 18 19 18 17 17 15 16 16 15 14 14 12 11 10 10 9 9 9 9 8 8 8 8 7 7 7 7 6 6 6 6 6 7 7 8 8 9 9 10 10
15 16 18 18 18 18 18 17 15 16 17 17 16 15 14 12 12 12 11 10 10 10 10 10 10 9 9 8 8 8 8 8 8 8 9 9 10 10 10 11 11 11 12
15 16 17 18 18 18 18 17 16 16 16 17 16 16 15 14 13 13 13 12 12 12 11 11 11 11 11 10 10 10 10 9 10 10 11 11 12 12 12 13 13 13 14
16 16 16 17 18 19 19 18 18 17 16 16 17 17 16 15 15 15 14 14 14 14 13 12 12 12 12 12 11 12 11 11 12 12 12 13 13 14 14 15 15 15 15
16 16 16 16 17 17 18 19 19 18 17 17 17 17 17 17 16 16 16 16 16 15 15 14 13 13 14 14 13 13 13 14 14 14 14 15 15 15 15 15 16 17 17
16 16 16 16 16 17 17 18 19 19 18 18 18 18 18 17 17 17 17 17 17 17 16 15 15 16 16 16 16 16 16 17 17 17 17 17 17 18 17 17 18 19 19
16 16 16 16 16 17 18 18 19 18 18 17 17 18 18 17 17 18 18 18 18 17 17 17 17 17 18 18 18 18 18 18 19 19 19 19 19 19 20 20 21 21 22
15 16 17 16 16 17 18 18 18 18 18 18 18 18 18 19 19 19 19 19 18 18 19 19 19 20 19 20 19 20 21 21 21 21 21 22 22 22 22 23 24 24 25
16 16 16 16 16 17 18 18 18 19 19 19 19 19 19 20 20 20 21 21 20 21 21 21 21 21 21 21 21 21 22 22 23 23 23 23 24 24 24 25 27 27 27
16 17 17 17 17 17 17 18 19 19 20 20 21 20 20 21 21 21 22 22 22 22 22 22 22 22 22 22 22 23 23 23 24 24 25 25 26 26 27 28 29 29 29
17 17 17 17 17 17 18 19 20 20 21 22 22 22 22 23 22 22 22 23 23 23 23 23 23 23 23 23 23 24 25 25 26 26 27 27 28 28 29 30 31 31 32
17 17 18 18 18 18 19 20 21 22 22 23 24 24 24 23 23 23 23 23 23 23 24 24 24 24 24 25 25 26 27 27 28 28 29 29 30 31 32 32 32 33 34
18 18 19 19 19 20 20 20 21 22 23 23 24 24 24 24 24 24 24 23 24 24 25 26 25 25 26 26 27 28 29 29 30 31 31 32 32 33 33 33 34 34 35
18 19 19 19 19 19 20 20 21 22 23 24 24 24 24 24 24 25 25 25 26 27 27 27 27 27 27 28 29 30 31 31 33 33 33 34 35 35 35 35 35 35 36
Wind_Direction
200 201 201 202 201 201 201 206 212 212 218 227 235 250 263 283 298 308 317 326 336 341 348 355 356 357 356 355 355 356 357 357 350 327 246 221 209 202 199 206 217 226 232
203 204 204 206 206 206 205 208 212 214 219 230 242 253 261 271 287 301 314 322 335 343 351 358 5 6 6 5 5 7 8 10 18 24 156 187 189 192 200 209 224 230 235
204 206 205 208 210 208 207 209 214 217 220 228 241 251 251 254 269 289 305 319 335 343 346 354 10 16 17 15 15 18 18 22 31 41 58 145 189 189 206 223 232 230 233
205 206 206 207 208 208 209 211 214 218 224 228 235 244 245 247 258 273 293 313 326 342 347 350 11 17 18 18 19 22 21 24 34 43 50 75 126 199 202 213 226 230 232
208 208 209 209 209 210 211 212 217 219 223 229 233 238 240 244 249 260 277 291 309 334 343 354 5 9 8 8 15 20 15 16 22 34 44 62 77 186 220 225 229 237 245
212 212 211 209 209 211 212 216 220 221 224 228 232 235 235 242 243 245 257 271 281 298 331 346 345 355 357 359 4 1 1 4 7 13 14 24 36 96 179 259 257 255 259
214 214 213 211 211 213 215 218 220 222 224 227 231 232 231 237 239 238 246 254 262 272 285 303 312 333 348 348 347 348 352 349 349 350 344 331 314 293 274 274 275 270 265
215 216 214 213 212 214 216 218 219 221 224 226 227 230 230 233 233 235 235 242 250 262 274 284 300 312 320 325 324 324 322 327 332 327 326 321 316 301 296 288 277 277 278
219 221 219 216 216 217 219 219 220 222 224 227 226 228 231 236 235 236 234 239 249 261 267 272 286 299 307 312 309 313 314 320 323 323 320 319 312 309 305 299 293 290 288
223 221 221 219 216 216 217 218 220 220 222 224 226 230 235 236 238 236 235 240 251 263 269 272 279 291 299 304 306 307 308 306 302 312 317 316 306 303 305 300 293 291 290
225 223 221 217 216 216 217 219 220 221 221 222 225 230 234 236 236 235 235 238 247 260 269 273 277 283 287 294 295 294 293 292 293 297 305 312 311 308 305 301 299 296 289
224 224 221 217 216 216 218 220 223 222 222 225 228 230 231 232 233 233 236 240 248 256 267 272 276 282 284 284 284 288 290 289 290 295 300 307 309 307 305 301 301 299 293
224 223 221 218 217 217 219 222 225 224 224 228 230 231 233 233 235 238 239 244 250 255 265 270 277 281 278 278 279 282 284 288 288 288 292 297 300 302 299 298 299 299 295
224 223 222 220 220 220 221 225 228 228 227 228 229 232 234 236 239 241 242 245 251 257 263 269 274 275 274 274 275 277 279 282 285 288 291 294 297 299 297 295 295 297 296
226 224 221 223 224 224 226 225 229 231 228 228 230 233 235 238 241 244 246 249 256 259 262 267 269 272 274 273 273 277 279 281 285 288 292 294 296 298 296 292 291 292 293
229 226 224 226 227 228 228 227 228 229 229 230 232 234 235 239 243 245 249 252 256 260 262 264 265 269 270 270 272 275 278 281 284 287 291 293 294 295 294 294 292 293 293
228 227 227 229 228 229 230 228 229 229 230 232 233 235 239 243 246 246 249 255 259 262 263 263 265 267 269 269 269 271 275 280 284 286 289 292 295 298 297 296 294 294 293
227 227 229 229 226 227 228 229 228 230 232 233 235 237 242 246 246 248 251 257 261 263 263 263 263 265 268 270 271 273 275 279 282 285 287 290 290 291 293 294 294 294 294
229 228 227 227 228 229 229 229 230 234 237 238 240 241 243 247 250 251 254 258 262 263 263 264 265 266 270 271 271 273 275 279 282 284 286 287 289 291 293 293 294 294 294
229 228 228 230 233 233 232 232 233 236 240 243 245 245 246 250 252 254 255 258 263 265 266 266 267 268 271 270 271 274 276 278 281 284 285 285 286 287 290 291 293 295 295
227 228 232 235 235 235 235 235 237 239 241 245 249 249 251 252 255 256 257 261 264 266 266 267 268 270 272 271 272 274 276 278 280 282 284 285 287 288 290 292 293 294 294
229 232 236 237 237 237 238 238 239 240 244 247 251 252 253 256 259 259 260 263 266 267 266 268 269 271 274 273 273 274 276 278 281 283 285 287 287 288 289 291 292 292 293
231 234 235 236 238 239 240 241 241 243 248 251 253 254 255 257 259 261 263 264 266 268 268 270 271 272 273 272 274 276 277 279 281 284 286 286 287 287 288 290 290 291 292
238 239 239 240 242 244 244 243 244 246 251 253 255 256 256 257 260 262 264 265 266 269 270 272 273 275 276 275 276 277 279 279 281 284 285 286 287 288 289 289 290 292 293
243 244 244 245 248 249 250 248 246 249 252 255 255 256 257 257 258 262 264 265 267 269 270 272 274 276 277 277 277 279 280 281 282 284 285 285 287 289 289 289 290 292 293
245 248 249 248 250 252 254 253 252 254 256 257 257 256 258 257 259 263 265 267 268 270 271 273 275 277 278 278 279 280 281 282 283 285 286 287 288 289 289 289 290 292 293
Height
5858 5860 5862 5865 5867 5869 5871 5873 5874 5875 5876 5877 5878 5879 5879 5879 5879 5878 5878 5877 5876 5875 5874 5872 5871 5870 5869 5868 5867 5866 5865 5864 5863 5863 5863 5863 5864 5865 5865 5866 5867 5868 5868
5856 5858 5860 5863 5865 5867 5869 5871 5872 5874 5875 5876 5877 5877 5878 5878 5878 5877 5877 5876 5875 5874 5873 5872 5871 5870 5869 5868 5867 5866 5865 5864 5863 5863 5863 5863 5864 5864 5865 5866 5866 5867 5868
5854 5856 5858 5861 5863 5865 5867 5869 5871 5872 5874 5875 5875 5876 5876 5876 5876 5876 5876 5875 5874 5873 5873 5871 5870 5870 5869 5868 5867 5866 5865 5864 5863 5863 5863 5863 5864 5864 5865 5865 5866 5866 5867
5851 5854 5856 5859 5861 5863 5866 5868 5869 5871 5872 5873 5874 5874 5875 5875 5875 5875 5875 5874 5873 5873 5872 5871 5870 5870 5869 5868 5867 5866 5865 5864 5864 5863 5863 5863 5864 5864 5864 5865 5865 5865 5866
5849 5852 5854 5857 5859 5861 5864 5865 5867 5869 5870 5871 5872 5873 5873 5874 5874 5874 5874 5873 5873 5872 5872 5871 5870 5869 5869 5868 5867 5866 5865 5865 5864 5864 5863 5863 5863 5863 5864 5864 5864 5865 5865
5847 5850 5852 5854 5857 5859 5861 5863 5865 5867 5868 5869 5870 5871 5872 5872 5872 5872 5873 5872 5872 5872 5871 5871 5870 5869 5868 5868 5867 5866 5865 5865 5864 5864 5864 5863 5863 5863 5863 5863 5864 5864 5864
5845 5847 5850 5852 5855 5857 5859 5861 5863 5865 5866 5867 5868 5869 5870 5870 5871 5871 5871 5871 5871 5871 5870 5870 5869 5869 5868 5867 5867 5866 5865 5865 5864 5864 5864 5863 5863 5863 5863 5863 5863 5863 5863
5843 5845 5847 5850 5852 5855 5857 5859 5861 5862 5864 5865 5866 5867 5868 5869 5869 5870 5870 5870 5870 5870 5869 5869 5869 5868 5867 5867 5866 5866 5865 5864 5864 5863 5863 5862 5862 5862 5862 5862 5862 5862 5862
5840 5842 5844 5847 5849 5852 5854 5856 5858 5860 5862 5863 5864 5865 5866 5867 5867 5868 5868 5868 5868 5868 5869 5868 5868 5867 5867 5866 5865 5865 5864 5863 5863 5863 5862 5862 5861 5861 5861 5860 5861 5861 5861
5838 5839 5842 5844 5846 5849 5851 5854 5855 5857 5859 5861 5862 5863 5864 5865 5866 5866 5867 5867 5867 5867 5868 5867 5867 5867 5866 5865 5865 5864 5863 5863 5862 5862 5862 5861 5861 5860 5860 5859 5859 5859 5859
5835 5837 5839 5841 5844 5846 5849 5851 5853 5855 5856 5858 5860 5861 5862 5863 5864 5864 5865 5866 5866 5866 5866 5866 5866 5865 5865 5864 5863 5863 5863 5862 5862 5862 5861 5861 5860 5859 5859 5858 5858 5857 5857
5833 5834 5836 5838 5841 5843 5846 5848 5850 5852 5854 5856 5857 5859 5860 5861 5862 5863 5863 5864 5864 5865 5865 5864 5864 5864 5863 5863 5862 5862 5862 5862 5861 5861 5860 5860 5859 5858 5857 5857 5856 5855 5855
5830 5832 5833 5836 5838 5841 5843 5845 5847 5849 5851 5853 5855 5856 5858 5859 5860 5861 5861 5862 5862 5863 5863 5862 5862 5862 5861 5861 5861 5861 5860 5860 5860 5860 5859 5858 5857 5856 5856 5855 5854 5853 5852
5827 5829 5831 5833 5836 5838 5840 5842 5844 5846 5848 5850 5852 5853 5855 5856 5857 5858 5859 5859 5860 5860 5860 5860 5860 5860 5859 5859 5859 5859 5859 5859 5858 5858 5857 5856 5855 5854 5853 5852 5851 5850 5849
5824 5826 5828 5830 5832 5834 5836 5839 5841 5843 5844 5846 5849 5850 5852 5853 5854 5855 5856 5857 5857 5857 5858 5857 5857 5857 5857 5857 5856 5856 5856 5856 5856 5855 5855 5854 5853 5851 5850 5849 5848 5847 5846
5821 5823 5825 5827 5829 5831 5833 5835 5837 5839 5841 5843 5845 5847 5848 5850 5851 5852 5853 5853 5854 5854 5854 5854 5854 5854 5854 5854 5854 5854 5854 5853 5853 5852 5852 5851 5849 5848 5847 5846 5845 5843 5842
5818 5820 5822 5824 5825 5827 5829 5831 5834 5836 5838 5840 5842 5843 5845 5846 5847 5848 5849 5850 5850 5851 5851 5851 5851 5851 5851 5851 5851 5851 5850 5850 5849 5849 5848 5847 5846 5844 5843 5841 5840 5839 5838
5814 5816 5818 5820 5822 5824 5826 5828 5830 5832 5834 5836 5838 5840 5841 5842 5843 5844 5845 5846 5846 5846 5846 5847 5847 5847 5847 5847 5847 5847 5846 5846 5845 5845 5844 5843 5841 5840 5839 5837 5836 5834 5833
5810 5813 5815 5817 5819 5821 5823 5825 5827 5829 5831 5832 5834 5836 5837 5838 5839 5840 5841 5841 5842 5842 5842 5842 5842 5842 5842 5842 5842 5842 5841 5841 5841 5840 5839 5838 5836 5835 5833 5832 5831 5829 5827
5807 5809 5811 5813 5815 5817 5819 5821 5823 5825 5827 5829 5830 5831 5833 5834 5835 5836 5836 5837 5837 5837 5837 5837 5837 5837 5837 5837 5836 5836 5836 5836 5835 5834 5833 5832 5831 5830 5828 5826 5825 5823 5821
5803 5806 5808 5810 5811 5813 5815 5817 5819 5821 5823 5824 5826 5827 5828 5829 5830 5831 5832 5832 5832 5832 5832 5832 5832 5832 5831 5831 5831 5830 5830 5830 5829 5828 5827 5826 5825 5823 5821 5820 5818 5816 5814
5800 5802 5804 5806 5808 5809 5811 5813 5815 5817 5818 5820 5821 5822 5823 5824 5825 5825 5826 5826 5826 5826 5826 5826 5826 5826 5825 5825 5824 5824 5824 5823 5822 5821 5820 5819 5818 5816 5814 5812 5810 5808 5806
5797 5799 5801 5802 5804 5805 5807 5809 5811 5812 5814 5815 5816 5817 5818 5818 5819 5820 5820 5820 5820 5820 5820 5820 5820 5819 5819 5818 5818 5817 5817 5816 5815 5814 5813 5811 5810 5808 5806 5804 5802 5800 5797
5793 5795 5797 5798 5800 5801 5803 5804 5805 5807 5808 5809 5810 5811 5812 5812 5813 5813 5813 5814 5814 5814 5814 5814 5813 5813 5812 5811 5811 5810 5809 5808 5807 5806 5805 5803 5801 5799 5797 5795 5793 5790 5787
5789 5791 5792 5794 5795 5796 5797 5799 5800 5801 5803 5803 5804 5805 5805 5806 5806 5807 5807 5807 5807 5807 5807 5807 5806 5806 5805 5804 5804 5802 5801 5800 5799 5798 5796 5794 5792 5790 5788 5785 5783 5780 5777
5784 5786 5787 5789 5790 5791 5792 5793 5794 5795 5796 5797 5798 5798 5799 5799 5800 5800 5800 5799 5800 5799 5799 5799 5799 5798 5797 5796 5796 5794 5793 5792 5790 5788 5787 5785 5782 5780 5778 5775 5773 5770 5767